When you browse on this site, cookies collect data to enhance your experience and personalize the content and advertising you see.
Visit our Privacy Policy to learn more. By continuing to use the site, you agree to this use of cookies and data.
  • Em Portugal
  • Lista de países
  • Para 7 dias
  • Temperatura da água
  • Mapa do tempo
  • Widgets de tempo
  • user-avatar
    Iniciar Sessão

    Previsão horária em Armagh

    Hoje, 22 Setembro, Domingo

    Tempo Temperatura Precipitação Vento Pressão Humidade
    00:00 +15°C° 0 mm 4 m/s 746 mmHg 97%
    01:00 +17°C° 0.4 mm 4 m/s 745 mmHg 97%
    02:00 +17°C° 0.4 mm 4 m/s 745 mmHg 97%
    03:00 +17°C° 0.4 mm 4 m/s 744 mmHg 96%
    04:00 +15°C° 0.6 mm 4 m/s 744 mmHg 97%
    05:00 +16°C° 0.6 mm 3 m/s 744 mmHg 97%
    06:00 +16°C° 0 mm 3 m/s 744 mmHg 98%
    07:00 +16°C° 2.5 mm 3 m/s 744 mmHg 98%
    08:00 +16°C° 2.5 mm 2 m/s 744 mmHg 98%
    09:00 +16°C° 2.5 mm 2 m/s 744 mmHg 98%
    10:00 +16°C° 0.8 mm 2 m/s 744 mmHg 97%
    11:00 +17°C° 0.8 mm 2 m/s 744 mmHg 96%
    12:00 +17°C° 0.8 mm 2 m/s 744 mmHg 95%
    13:00 +17°C° 0.5 mm 2 m/s 744 mmHg 93%
    14:00 +17°C° 0.5 mm 2 m/s 745 mmHg 92%
    15:00 +17°C° 0.5 mm 3 m/s 745 mmHg 91%
    16:00 +17°C° 0.4 mm 2 m/s 745 mmHg 92%
    17:00 +16°C° 0.4 mm 2 m/s 745 mmHg 93%
    18:00 +15°C° 0.4 mm 2 m/s 745 mmHg 95%
    19:00 +15°C° 0.1 mm 2 m/s 746 mmHg 95%
    20:00 +14°C° 0.1 mm 2 m/s 746 mmHg 96%
    21:00 +14°C° 0.1 mm 2 m/s 746 mmHg 96%
    22:00 +13°C° 0.3 mm 2 m/s 747 mmHg 96%
    23:00 +12°C° 0.3 mm 3 m/s 747 mmHg 96%

    Amanhã, 23 Setembro, Segunda-feira

    Tempo Temperatura Precipitação Vento Pressão Humidade
    00:00 +12°C° 0.3 mm 3 m/s 747 mmHg 96%
    01:00 +13°C° 0.3 mm 2 m/s 747 mmHg 97%
    02:00 +12°C° 0.3 mm 2 m/s 747 mmHg 97%
    03:00 +12°C° 0.3 mm 2 m/s 747 mmHg 97%
    04:00 +10°C° 0 mm 2 m/s 747 mmHg 96%
    05:00 +10°C° 0 mm 2 m/s 748 mmHg 96%
    06:00 +9°C° 0 mm 2 m/s 748 mmHg 96%
    07:00 +10°C° 0 mm 2 m/s 748 mmHg 94%
    08:00 +12°C° 0 mm 2 m/s 748 mmHg 92%
    09:00 +13°C° 0 mm 2 m/s 748 mmHg 89%
    10:00 +13°C° 0 mm 3 m/s 747 mmHg 86%
    11:00 +13°C° 0 mm 4 m/s 747 mmHg 83%
    12:00 +14°C° 0 mm 5 m/s 747 mmHg 80%
    13:00 +14°C° 1 mm 6 m/s 746 mmHg 85%
    14:00 +14°C° 1 mm 6 m/s 745 mmHg 90%
    15:00 +12°C° 1 mm 7 m/s 745 mmHg 95%
    16:00 +12°C° 0.5 mm 7 m/s 744 mmHg 95%
    17:00 +14°C° 0.5 mm 7 m/s 744 mmHg 95%
    18:00 +14°C° 0.5 mm 7 m/s 743 mmHg 95%
    19:00 +14°C° 0.3 mm 6 m/s 743 mmHg 96%
    20:00 +14°C° 0.3 mm 4 m/s 743 mmHg 97%
    21:00 +14°C° 0.3 mm 3 m/s 743 mmHg 97%
    22:00 +14°C° 0.2 mm 3 m/s 743 mmHg 97%
    23:00 +14°C° 0.2 mm 3 m/s 743 mmHg 98%

    Depois de amanhã, 24 Setembro, Terça-feira

    Tempo Temperatura Precipitação Vento Pressão Humidade
    00:00 +14°C° 0.2 mm 3 m/s 742 mmHg 98%
    01:00 +15°C° 0 mm 2 m/s 742 mmHg 98%
    02:00 +15°C° 0 mm 2 m/s 742 mmHg 97%
    03:00 +14°C° 0 mm 2 m/s 742 mmHg 97%
    04:00 +14°C° 0 mm 2 m/s 741 mmHg 97%
    05:00 +14°C° 0 mm 1 m/s 741 mmHg 98%
    06:00 +14°C° 0 mm 1 m/s 741 mmHg 98%
    07:00 +14°C° 0 mm 1 m/s 741 mmHg 96%
    08:00 +15°C° 0 mm 1 m/s 741 mmHg 95%
    09:00 +16°C° 0 mm 2 m/s 741 mmHg 93%
    10:00 +16°C° 0 mm 2 m/s 741 mmHg 88%
    11:00 +17°C° 0 mm 2 m/s 741 mmHg 84%
    12:00 +18°C° 0 mm 3 m/s 741 mmHg 79%
    13:00 +18°C° 0.1 mm 3 m/s 741 mmHg 79%
    14:00 +18°C° 0.1 mm 3 m/s 740 mmHg 80%
    15:00 +18°C° 0.1 mm 3 m/s 740 mmHg 81%
    16:00 +17°C° 0.1 mm 2 m/s 740 mmHg 85%
    17:00 +16°C° 0.1 mm 2 m/s 739 mmHg 89%
    18:00 +15°C° 0.1 mm 1 m/s 739 mmHg 93%
    19:00 +14°C° 0 mm 1 m/s 740 mmHg 93%
    20:00 +13°C° 0 mm 1 m/s 740 mmHg 94%
    21:00 +13°C° 0 mm 1 m/s 740 mmHg 94%
    22:00 +12°C° 0 mm 1 m/s 741 mmHg 95%
    23:00 +12°C° 0 mm 1 m/s 741 mmHg 95%

    25 Setembro, Quarta-feira

    Tempo Temperatura Precipitação Vento Pressão Humidade
    00:00 +12°C° 0 mm 1 m/s 741 mmHg 96%
    01:00 +12°C° 0 mm 1 m/s 741 mmHg 96%
    02:00 +12°C° 0 mm 1 m/s 742 mmHg 96%
    03:00 +10°C° 0 mm 2 m/s 742 mmHg 96%
    04:00 +10°C° 0 mm 2 m/s 742 mmHg 97%
    05:00 +10°C° 0 mm 2 m/s 742 mmHg 97%
    06:00 +10°C° 0 mm 2 m/s 743 mmHg 97%
    07:00 +12°C° 0 mm 2 m/s 743 mmHg 95%
    08:00 +13°C° 0 mm 2 m/s 743 mmHg 94%
    09:00 +15°C° 0 mm 2 m/s 744 mmHg 92%
    10:00 +16°C° 0 mm 2 m/s 744 mmHg 89%
    11:00 +17°C° 0 mm 3 m/s 744 mmHg 85%
    12:00 +18°C° 0 mm 3 m/s 744 mmHg 81%
    13:00 +18°C° 0.1 mm 3 m/s 744 mmHg 81%
    14:00 +18°C° 0.1 mm 3 m/s 744 mmHg 81%
    15:00 +18°C° 0.1 mm 4 m/s 743 mmHg 81%
    16:00 +17°C° 0.1 mm 4 m/s 743 mmHg 85%
    17:00 +15°C° 0.1 mm 4 m/s 742 mmHg 89%
    18:00 +14°C° 0.1 mm 4 m/s 742 mmHg 93%
    19:00 +14°C° 1.9 mm 4 m/s 741 mmHg 94%
    20:00 +15°C° 1.9 mm 5 m/s 741 mmHg 96%
    21:00 +15°C° 1.9 mm 6 m/s 740 mmHg 97%
    22:00 +15°C° 0.7 mm 5 m/s 740 mmHg 96%
    23:00 +14°C° 0.7 mm 5 m/s 740 mmHg 95%

    26 Setembro, Quinta-feira

    Tempo Temperatura Precipitação Vento Pressão Humidade
    00:00 +14°C° 0.7 mm 5 m/s 740 mmHg 95%
    01:00 +13°C° 0.1 mm 4 m/s 740 mmHg 94%
    02:00 +12°C° 0.1 mm 4 m/s 740 mmHg 94%
    03:00 +10°C° 0.1 mm 3 m/s 741 mmHg 94%
    04:00 +10°C° 0 mm 3 m/s 741 mmHg 94%
    05:00 +10°C° 0 mm 4 m/s 741 mmHg 95%
    06:00 +10°C° 0 mm 4 m/s 741 mmHg 95%
    07:00 +11°C° 0.1 mm 4 m/s 741 mmHg 95%
    08:00 +10°C° 0.1 mm 5 m/s 742 mmHg 95%
    09:00 +10°C° 0.1 mm 5 m/s 742 mmHg 95%
    10:00 +12°C° 0.2 mm 5 m/s 742 mmHg 91%
    11:00 +13°C° 0.2 mm 6 m/s 742 mmHg 88%
    12:00 +14°C° 0.2 mm 6 m/s 742 mmHg 84%
    13:00 +14°C° 0.3 mm 6 m/s 742 mmHg 83%
    14:00 +14°C° 0.3 mm 6 m/s 742 mmHg 83%
    15:00 +14°C° 0.3 mm 6 m/s 742 mmHg 82%
    16:00 +13°C° 0.1 mm 5 m/s 742 mmHg 85%
    17:00 +13°C° 0.1 mm 5 m/s 742 mmHg 87%
    18:00 +12°C° 0.1 mm 4 m/s 742 mmHg 89%
    19:00 +11°C° 0 mm 4 m/s 743 mmHg 90%
    20:00 +10°C° 0 mm 5 m/s 743 mmHg 90%
    21:00 +9°C° 0 mm 5 m/s 743 mmHg 91%
    22:00 +10°C° 0 mm 5 m/s 743 mmHg 91%
    23:00 +10°C° 0 mm 5 m/s 743 mmHg 91%

    27 Setembro, Sexta-feira

    Tempo Temperatura Precipitação Vento Pressão Humidade
    00:00 +10°C° 0 mm 5 m/s 743 mmHg 91%
    01:00 +10°C° 0.2 mm 5 m/s 743 mmHg 92%
    02:00 +10°C° 0.2 mm 5 m/s 743 mmHg 93%
    03:00 +10°C° 0.2 mm 6 m/s 743 mmHg 93%
    04:00 +10°C° 0 mm 6 m/s 742 mmHg 93%
    05:00 +10°C° 0 mm 6 m/s 742 mmHg 93%
    06:00 +10°C° 0 mm 6 m/s 742 mmHg 92%
    07:00 +10°C° 0.1 mm 6 m/s 742 mmHg 93%
    08:00 +10°C° 0.1 mm 6 m/s 742 mmHg 93%
    09:00 +10°C° 0.1 mm 6 m/s 742 mmHg 93%
    10:00 +10°C° 0.1 mm 6 m/s 742 mmHg 92%
    11:00 +10°C° 0.1 mm 7 m/s 742 mmHg 90%
    12:00 +11°C° 0.1 mm 7 m/s 742 mmHg 89%
    13:00 +11°C° 0.1 mm 7 m/s 742 mmHg 89%
    14:00 +11°C° 0.1 mm 7 m/s 741 mmHg 88%
    15:00 +11°C° 0.1 mm 6 m/s 741 mmHg 88%
    16:00 +11°C° 0.3 mm 7 m/s 741 mmHg 90%
    17:00 +11°C° 0.3 mm 7 m/s 740 mmHg 91%
    18:00 +10°C° 0.3 mm 7 m/s 740 mmHg 93%
    19:00 +10°C° 0.6 mm 6 m/s 740 mmHg 93%
    20:00 +10°C° 0.6 mm 6 m/s 740 mmHg 93%
    21:00 +10°C° 0.6 mm 6 m/s 740 mmHg 93%
    22:00 +10°C° 0.1 mm 6 m/s 740 mmHg 93%
    23:00 +10°C° 0.1 mm 6 m/s 740 mmHg 93%
    Mostrar mais